{"data":{"norad_id":69741,"intl_designator":"2026-150C","name":"STARLINK-38074","alt_names":[],"object_type":"PAYLOAD","status":"ACTIVE","operator":null,"country":"US","launch_date":"2026-07-02","launch_site_code":"AFWTR","launch_vehicle":null,"mission":null,"orbit_class":"UNKNOWN","rcs_meters":null,"size_class":null,"mass_kg":null,"dimensions":null,"purposes":["comms"],"wikipedia_slug":null,"has_3d_model":false,"image_url":null,"decayed_at":null,"tle_current":{"epoch":"2026-09-20T00:09:59.567616Z","epoch_age_seconds":64103,"freshness":"FRESH","line1":"1 69741U 26150C   26263.00693944  .00012023  00000+0  37417-3 0  9997","line2":"2 69741  97.2828 101.9923 0002413  82.2463 277.9054 15.33441707 13660","mean_motion":15.33441707,"eccentricity":0.0002413,"inclination_deg":97.2828,"raan_deg":101.9923,"arg_perigee_deg":82.2463,"mean_anomaly_deg":277.9054,"bstar":0.00037417,"rev_number":1366,"period_min":93.906406316363,"perigee_km":463.90158975656,"apogee_km":467.20435453712,"semimajor_km":6843.6899721468,"source":"CELESTRAK","updated_at":"2026-09-20T09:00:44.286366Z"}}}